Regional Weather Roundup
Issued by NWS Goodland, KS

Home | Current Version | Previous Version | Graphics & Text | Print | Product List | Glossary On
Versions: 1 2 3 4 5 6 7 8 9 10 11 12 13 14 15 16 17 18 19 20 21 22 23 24 25 26 27 28 29 30 31 32 33 34 35 36 37 38 39 40 41 42 43 44 45 46 47 48 49 50
756
ASUS43 KGLD 200159
RWRGLD

GOODLAND FORECAST AREA HOURLY WEATHER ROUNDUP
NATIONAL WEATHER SERVICE GOODLAND KS
800 PM MDT THU OCT 19 2017

...OFFICIAL OBSERVATIONS...

CITY           SKY/WX    TMP DP  RH WIND       PRES   REMARKS
GOODLAND KS    CLOUDY    61  46  57 S12       29.92S
HILL CITY KS   CLOUDY    67  46  47 S15G23    29.95S
IMPERIAL NEB   CLOUDY    65  44  46 SE12      29.89S
MCCOOK NEB     CLOUDY    68  42  38 S14       29.90S
AKRON CO       CLOUDY    60  32  34 S13       29.91S
BURLINGTON CO  CLOUDY    61  46  57 SE14      29.93F
LIMON CO       CLOUDY    43  34  70 CALM      29.97S
$$

...UNOFFICIAL OBSERVATIONS...

CITY           SKY/WX    TMP DP  RH WIND       PRES   REMARKS
NORTON KS      CLEAR     64  34  32 SE10      29.93S
SHARON SPRINGS   N/A     64  46  51 SE9         N/A
TRENTON NEB      N/A     64  32  30 S7          N/A
YUMA CO        FAIR      59  32  36 S10       29.90S
$$




USA.gov is the U.S. government's official web portal to all federal, state and local government web resources and services.